Weather in Akure

Nigeria     7°14′53″N   5°10′45″E
temp.,
°C
wind,
m/s
gust,
m/s
humid.,
%
clouds,
%
prec.,
mm/h
press.,
hPa
HPBL,
m
16 june, wed
wed1601:00+22w1199100 0.0 101429
04:00+22wnw269991 0.2 1012169
07:00+22nnw1697100 0.2 1014237
10:00+27w127299 0.0 1014464
13:00+33sse224373 0.0 10111588
16:00+33ese234236 0.0 10092010
19:00+24ssw3108898 0.7 1011508
22:00+23sw289798 1.0 1014556
17 june, thu
thu1701:00+22wsw169899 1.1 1014357
04:00+22wsw2798100 0.0 1013375
07:00+22w159870 0.1 1015305
10:00+27wsw237244 0.1 1016860
13:00+28ssw127662 2.4 1014815
16:00+27s228399 3.6 1012556
19:00+23sw2797100 9.6 1014227
22:00+22ssw1599100 0.1 1015206
18 june, fri
fri1801:00+22w1110098 0.1 101557
04:00+22wsw1210099 0.0 1014137
07:00+22sse0199100 0.1 101663
10:00+26ssw1184100 0.8 1016574
13:00+30wsw226173 1.8 10141254
16:00+28sw3567100 0.1 1011634
19:00+24ssw278891 0.6 1013311
22:00+22sw169610 0.1 1015244
19 june, sat
sat1901:00+22sw1699100 0.1 1015246
04:00+22w2699100 0.1 1013275
07:00+22w1497100 0.1 1015255
10:00+27wsw237175 0.0 1016920
13:00+26ene0081100 0.4 101551
16:00+25sse138698 0.4 1012120
19:00+23s249617 1.0 1014167
22:00+22s159943 0.0 1016207
20 june, sun
sun2001:00+22sw1310096 0.0 1015118
04:00+22w1499100 0.0 1014203
07:00+22w1398100 0.2 1015212
10:00+25ssw2282100 0.0 1016547
13:00+31wsw115677 0.1 10141323
16:00+28s237685 2.1 1011529
19:00+23ssw2795100 7.4 1013236
22:00+22ssw2898100 0.6 1015484